FW9607 Weather Reports


Display with metric or nautical units.
time (UTC)temp
F
wind
direction
speed
MPH
gust
MPH
rain 1hr
in
rain 24hr
in
rain mn
in
humidity
%
barometer
mb
20260906172855 97 135 2.0 7.0 0.00 0.00 0.00 50 1011.4
20260906172354 96 122 3.0 9.0 0.00 0.00 0.00 53 1011.5
20260906171853 97 128 3.0 9.0 0.00 0.00 0.00 53 1011.7
20260906171351 98 110 3.0 9.0 0.00 0.00 0.00 49 1011.6
20260906170853 98 73 3.0 5.0 0.00 0.00 0.00 50 1011.7
20260906170359 97 124 3.0 7.0 0.00 0.00 0.00 51 1011.8
20260906165853 96 178 3.0 7.0 0.00 0.00 0.00 51 1011.8
20260906165351 96 179 2.0 7.0 0.00 0.00 0.00 53 1012.0
20260906164852 96 79 3.0 6.0 0.00 0.00 0.00 53 1012.0
20260906164351 96 207 4.0 9.0 0.00 0.00 0.00 52 1012.0
20260906163853 96 159 4.0 9.0 0.00 0.00 0.00 54 1012.0
20260906163351 96 133 3.0 8.0 0.00 0.00 0.00 56 1012.0
20260906162851 96 138 4.0 8.0 0.00 0.00 0.00 54 1012.0
20260906162348 95 130 4.0 10.0 0.00 0.00 0.00 56 1012.1
20260906161847 95 149 4.0 10.0 0.00 0.00 0.00 56 1012.1
20260906161346 95 77 3.0 10.0 0.00 0.00 0.00 56 1012.2
20260906160847 95 98 4.0 10.0 0.00 0.00 0.00 56 1012.2
20260906155847 94 165 4.0 12.0 0.00 0.00 0.00 60 1012.3
20260906154847 95 193 2.0 6.0 0.00 0.00 0.00 59 1012.3
20260906154346 94 144 2.0 6.0 0.00 0.00 0.00 60 1012.3
20260906153847 94 132 2.0 6.0 0.00 0.00 0.00 60 1012.2
20260906153347 93 119 2.0 6.0 0.00 0.00 0.00 62 1012.2
20260906152848 92 190 2.0 5.0 0.00 0.00 0.00 63 1012.1
20260906152346 91 40 3.0 9.0 0.00 0.00 0.00 66 1011.9
20260906151848 91 157 4.0 9.0 0.00 0.00 0.00 67 1011.9
20260906150346 92 346 2.0 6.0 0.00 0.00 0.00 66 1011.8
20260906145848 91 160 2.0 6.0 0.00 0.00 0.00 67 1011.8
20260906145343 91 126 2.0 4.0 0.00 0.00 0.00 68 1011.9
20260906144850 91 118 2.0 4.0 0.00 0.00 0.00 68 1011.9
20260906144343 91 88 2.0 4.0 0.00 0.00 0.00 69 1012.0
20260906143850 91 53 2.0 4.0 0.00 0.00 0.00 70 1011.9
20260906143344 90 101 2.0 4.0 0.00 0.00 0.00 71 1011.9
20260906142849 90 70 2.0 5.0 0.00 0.00 0.00 71 1011.9
20260906142344 90 146 2.0 5.0 0.00 0.00 0.00 72 1011.9
20260906141851 91 176 1.0 3.0 0.00 0.00 0.00 70 1011.9
20260906141346 90 128 1.0 2.0 0.00 0.00 0.00 69 1011.9
20260906140851 89 149 1.0 3.0 0.00 0.00 0.00 71 1011.9
20260906140344 89 115 1.0 3.0 0.00 0.00 0.00 71 1011.8
20260906135850 88 158 1.0 2.0 0.00 0.00 0.00 70 1011.8
20260906135344 87 88 1.0 3.0 0.00 0.00 0.00 73 1011.8
20260906134344 86 64 1.0 3.0 0.00 0.00 0.00 73 1011.6
20260906133831 86 63 1.0 3.0 0.00 0.00 0.00 74 1011.6
20260906133332 85 111 1.0 2.0 0.00 0.00 0.00 75 1011.6
20260906132837 85 68 1.0 2.0 0.00 0.00 0.00 75 1011.6
20260906132332 85 88 1.0 2.0 0.00 0.00 0.00 75 1011.6
20260906131332 84 123 1.0 2.0 0.00 0.00 0.00 76 1011.4
20260906130837 84 105 1.0 2.0 0.00 0.00 0.00 77 1011.4
20260906130331 83 94 1.0 2.0 0.00 0.00 0.00 77 1011.3
20260906125838 83 99 1.0 1.0 0.00 0.00 0.00 78 1011.3
20260906125332 83 209 1.0 1.0 0.00 0.00 0.00 79 1011.3
20260906124834 82 75 1.0 1.0 0.00 0.00 0.00 80 1011.2
20260906124448 82 98 1.0 2.0 0.00 0.00 0.00 80 1011.2
20260906123448 82 7 0.0 2.0 0.00 0.00 0.00 80 1011.1
20260906122943 82 0 0.0 1.0 0.00 0.00 0.00 79 1011.0
20260906122446 82 0 0.0 1.0 0.00 0.00 0.00 78 1011.0
20260906121943 82 115 0.0 2.0 0.00 0.00 0.00 78 1010.9
20260906121446 82 158 0.0 2.0 0.00 0.00 0.00 78 1010.8
20260906120930 82 134 0.0 1.0 0.00 0.00 0.00 79 1010.7
20260906115929 82 171 0.0 1.0 0.00 0.00 0.00 79 1010.6
20260906115434 82 0 0.0 1.0 0.00 0.00 0.00 79 1010.5
20260906114930 82 47 0.0 2.0 0.00 0.00 0.00 79 1010.4
20260906114433 82 0 1.0 2.0 0.00 0.00 0.00 79 1010.4
20260906113930 82 82 1.0 2.0 0.00 0.00 0.00 79 1010.3
20260906113435 82 188 1.0 2.0 0.00 0.00 0.00 80 1010.2
20260906112434 82 144 0.0 2.0 0.00 0.00 0.00 80 1010.2
20260906111915 81 158 0.0 1.0 0.00 0.00 0.00 80 1010.2
20260906111401 81 133 0.0 2.0 0.00 0.00 0.00 80 1010.0
20260906110845 81 67 0.0 2.0 0.00 0.00 0.00 80 1010.0
20260906110346 82 91 0.0 1.0 0.00 0.00 0.00 79 1010.0
20260906105846 82 0 0.0 1.0 0.00 0.00 0.00 79 1010.0
20260906105351 82 0 0.0 1.0 0.00 0.00 0.00 78 1009.9
20260906104847 82 0 0.0 1.0 0.00 0.00 0.00 79 1009.8
20260906104351 82 150 0.0 2.0 0.00 0.00 0.00 78 1009.8
20260906103846 82 162 0.0 2.0 0.00 0.00 0.00 78 1009.7
20260906103351 82 205 0.0 1.0 0.00 0.00 0.00 78 1009.6
20260906102845 82 0 0.0 1.0 0.00 0.00 0.00 78 1009.7
20260906102350 82 0 0.0 2.0 0.00 0.00 0.00 78 1009.7
20260906101846 82 0 1.0 2.0 0.00 0.00 0.00 78 1009.6
20260906101333 82 67 0.0 1.0 0.00 0.00 0.00 78 1009.7
20260906100318 82 0 0.0 1.0 0.00 0.00 0.00 79 1009.7
20260906095817 82 0 0.0 1.0 0.00 0.00 0.00 78 1009.7
20260906094802 82 196 0.0 1.0 0.00 0.00 0.00 79 1009.7
20260906094302 82 174 1.0 1.0 0.00 0.00 0.00 79 1009.7
20260906093802 82 156 1.0 2.0 0.00 0.00 0.00 79 1009.8
20260906093302 82 152 0.0 2.0 0.00 0.00 0.00 78 1009.8
20260906092801 82 0 1.0 2.0 0.00 0.00 0.00 78 1009.9
20260906092305 82 182 1.0 2.0 0.00 0.00 0.00 79 1009.9
20260906091301 82 0 0.0 2.0 0.00 0.00 0.00 80 1009.9
20260906090801 82 175 1.0 2.0 0.00 0.00 0.00 80 1009.9
20260906090302 82 227 1.0 2.0 0.00 0.00 0.00 80 1010.0
20260906085802 82 222 1.0 2.0 0.00 0.00 0.00 80 1009.9
20260906085247 82 145 1.0 2.0 0.00 0.00 0.00 80 1010.0
20260906084749 82 193 2.0 3.0 0.00 0.00 0.00 81 1009.9
20260906084252 82 217 2.0 3.0 0.00 0.00 0.00 82 1010.0
20260906083750 82 200 1.0 2.0 0.00 0.00 0.00 82 1010.1
20260906082751 82 197 2.0 4.0 0.00 0.00 0.00 83 1010.2
20260906082252 82 201 2.0 4.0 0.00 0.00 0.00 84 1010.2
20260906081751 82 187 3.0 4.0 0.00 0.00 0.00 84 1010.2
20260906081252 83 205 3.0 5.0 0.00 0.00 0.00 84 1010.1
20260906080746 83 211 3.0 5.0 0.00 0.00 0.00 84 1010.1
20260906080239 83 211 3.0 5.0 0.00 0.00 0.00 83 1010.2
20260906075733 84 214 3.0 4.0 0.00 0.00 0.00 83 1010.2
20260906074222 84 181 3.0 5.0 0.00 0.00 0.00 82 1010.1
20260906073721 84 184 3.0 5.0 0.00 0.00 0.00 82 1010.2
20260906073221 84 198 4.0 5.0 0.00 0.00 0.00 82 1010.2
20260906072719 84 195 4.0 5.0 0.00 0.00 0.00 82 1010.3
20260906072221 84 181 3.0 5.0 0.00 0.00 0.00 82 1010.2
20260906071206 84 183 4.0 6.0 0.00 0.00 0.00 82 1010.3
20260906070708 84 179 3.0 6.0 0.00 0.00 0.00 82 1010.3
20260906070207 85 182 3.0 4.0 0.00 0.00 0.00 81 1010.2
20260906065708 85 171 2.0 4.0 0.00 0.00 0.00 81 1010.3
20260906065207 85 182 2.0 4.0 0.00 0.00 0.00 80 1010.4
20260906064703 85 225 1.0 2.0 0.00 0.00 0.00 79 1010.4
20260906064203 85 179 1.0 2.0 0.00 0.00 0.00 79 1010.3
20260906063703 85 185 1.0 2.0 0.00 0.00 0.00 80 1010.4
20260906063206 85 133 1.0 2.0 0.00 0.00 0.00 80 1010.4
20260906062203 86 92 1.0 3.0 0.00 0.00 0.00 79 1010.6
20260906061650 86 158 1.0 2.0 0.00 0.00 0.00 78 1010.6
20260906061153 86 140 2.0 4.0 0.00 0.00 0.00 79 1010.5
20260906060652 86 152 2.0 4.0 0.00 0.00 0.00 79 1010.5
20260906060154 86 106 2.0 3.0 0.00 0.00 0.00 78 1010.5
20260906055652 86 121 2.0 4.0 0.00 0.00 0.00 78 1010.6
20260906054154 86 168 1.0 2.0 0.00 0.00 0.00 78 1010.9
20260906053653 86 145 1.0 3.0 0.00 0.00 0.00 78 1011.0
20260906052649 86 161 3.0 6.0 0.00 0.00 0.00 78 1011.2
20260906052148 86 194 3.0 6.0 0.00 0.00 0.00 78 1011.2
20260906051649 86 186 3.0 4.0 0.00 0.00 0.00 78 1011.3
20260906051148 87 200 2.0 4.0 0.00 0.00 0.00 78 1011.2
20260906050636 87 201 2.0 4.0 0.00 0.00 0.00 77 1011.4
20260906050123 87 185 3.0 4.0 0.00 0.00 0.00 77 1011.5
20260906045620 87 185 2.0 4.0 0.00 0.00 0.00 77 1011.5
20260906044609 87 174 3.0 6.0 0.00 0.00 0.00 77 1011.6
20260906044109 87 183 2.0 3.0 0.00 0.00 0.00 77 1011.6
20260906043606 87 179 2.0 3.0 0.00 0.00 0.00 77 1011.7
20260906043109 87 158 2.0 4.0 0.00 0.00 0.00 77 1011.7
20260906042605 87 149 1.0 4.0 0.00 0.00 0.00 76 1011.6
20260906042109 87 149 2.0 4.0 0.00 0.00 0.00 77 1011.6
20260906041606 87 162 2.0 5.0 0.00 0.00 0.00 77 1011.7
20260906040550 87 174 3.0 6.0 0.00 0.00 0.00 77 1011.7
20260906040050 87 179 4.0 6.0 0.00 0.00 0.00 78 1011.7
20260906035049 87 185 4.0 7.0 0.00 0.00 0.00 78 1011.8
20260906034549 87 153 4.0 7.0 0.00 0.00 0.00 78 1011.9
20260906034049 87 183 4.0 7.0 0.00 0.00 0.00 78 1011.9
20260906033549 87 163 3.0 6.0 0.00 0.00 0.00 78 1011.8
20260906033050 88 177 2.0 4.0 0.00 0.00 0.00 77 1011.8
20260906032550 88 198 2.0 4.0 0.00 0.00 0.00 77 1011.7
20260906032049 88 177 2.0 4.0 0.00 0.00 0.00 77 1011.7
20260906031050 88 179 2.0 5.0 0.00 0.00 0.00 77 1011.6
20260906030550 88 185 2.0 4.0 0.00 0.00 0.00 77 1011.4
20260906030051 88 101 2.0 5.0 0.00 0.00 0.00 78 1011.2
20260906025546 88 175 2.0 6.0 0.00 0.00 0.00 78 1011.2
20260906025049 88 155 2.0 6.0 0.00 0.00 0.00 76 1011.0
20260906024546 88 172 2.0 8.0 0.00 0.00 0.00 77 1010.8
20260906024049 88 152 3.0 8.0 0.00 0.00 0.00 76 1010.7
20260906023546 89 169 3.0 6.0 0.00 0.00 0.00 75 1010.5
20260906023048 89 170 3.0 6.0 0.00 0.00 0.00 75 1010.4
20260906022540 89 173 2.0 6.0 0.00 0.00 0.00 75 1010.3
20260906022038 89 148 2.0 6.0 0.00 0.00 0.00 74 1010.2
20260906021538 89 155 2.0 6.0 0.00 0.00 0.00 74 1010.1
20260906021029 89 149 3.0 6.0 0.00 0.00 0.00 74 1010.0
20260906020028 89 140 3.0 9.0 0.00 0.00 0.00 74 1009.8
20260906015529 89 94 3.0 6.0 0.00 0.00 0.00 74 1009.8
20260906015028 89 147 3.0 6.0 0.00 0.00 0.00 74 1009.8
20260906014528 89 131 3.0 8.0 0.00 0.00 0.00 74 1009.8
20260906014029 89 156 4.0 8.0 0.00 0.00 0.00 74 1009.8
20260906013529 89 88 4.0 8.0 0.00 0.00 0.00 73 1009.8
20260906013028 89 103 4.0 8.0 0.00 0.00 0.00 73 1009.7
20260906012529 89 107 4.0 10.0 0.00 0.00 0.00 73 1009.7
20260906011523 89 112 4.0 7.0 0.00 0.00 0.00 75 1009.6
20260906011023 90 119 3.0 7.0 0.00 0.00 0.00 71 1009.5
20260906010523 90 103 2.0 7.0 0.00 0.00 0.00 70 1009.6
20260906005011 90 83 3.0 9.0 0.00 0.00 0.00 69 1009.6
20260906004511 90 97 3.0 9.0 0.00 0.00 0.00 69 1009.5
20260906004012 90 121 3.0 9.0 0.00 0.00 0.00 69 1009.4
20260906003511 91 75 3.0 11.0 0.00 0.00 0.00 68 1009.3
20260906002512 91 117 4.0 8.0 0.00 0.00 0.00 68 1009.0
20260906002012 91 105 4.0 8.0 0.00 0.00 0.00 67 1008.9
20260906001512 91 108 4.0 9.0 0.00 0.00 0.00 66 1008.8
20260906001012 91 151 4.0 9.0 0.00 0.00 0.00 65 1008.8
20260906000509 92 122 4.0 11.0 0.00 0.00 0.00 65 1008.7
20260906000009 92 202 4.0 11.0 0.00 0.00 0.00 65 1008.6
20260905235509 93 130 4.0 10.0 0.00 0.00 0.00 62 1008.5
20260905235007 93 98 4.0 10.0 0.00 0.00 0.00 61 1008.4
20260905234507 93 150 4.0 10.0 0.00 0.00 0.00 61 1008.6
20260905233006 94 111 4.0 11.0 0.00 0.00 0.00 59 1008.6
20260905232506 94 141 4.0 11.0 0.00 0.00 0.00 58 1008.6
20260905232007 94 129 4.0 10.0 0.00 0.00 0.00 58 1008.5
20260905230509 95 108 5.0 10.0 0.00 0.00 0.00 56 1008.3
20260905230004 95 130 5.0 11.0 0.00 0.00 0.00 55 1008.2
20260905225504 95 139 5.0 11.0 0.00 0.00 0.00 54 1008.0
20260905224501 96 134 4.0 9.0 0.00 0.00 0.00 53 1007.9
20260905224001 96 89 4.0 9.0 0.00 0.00 0.00 53 1007.9
20260905223501 96 127 5.0 10.0 0.00 0.00 0.00 52 1007.9
20260905223002 96 149 6.0 11.0 0.00 0.00 0.00 52 1007.9
20260905222501 96 107 5.0 11.0 0.00 0.00 0.00 50 1007.9
20260905222002 96 145 5.0 12.0 0.00 0.00 0.00 50 1008.0
20260905221501 96 146 5.0 12.0 0.00 0.00 0.00 50 1008.1
20260905221002 96 136 6.0 11.0 0.00 0.00 0.00 49 1008.1
20260905220502 97 128 5.0 12.0 0.00 0.00 0.00 50 1008.0
20260905220002 97 88 4.0 12.0 0.00 0.00 0.00 50 1007.9
20260905215502 97 163 5.0 11.0 0.00 0.00 0.00 51 1008.0
20260905215002 97 102 5.0 12.0 0.00 0.00 0.00 49 1008.0
20260905214502 97 116 5.0 12.0 0.00 0.00 0.00 49 1007.9
20260905213459 97 132 5.0 13.0 0.00 0.00 0.00 49 1007.9
20260905212959 98 103 4.0 11.0 0.00 0.00 0.00 50 1007.9
20260905211957 97 153 5.0 12.0 0.00 0.00 0.00 52 1008.0
20260905211456 97 162 5.0 12.0 0.00 0.00 0.00 51 1008.1
20260905210957 98 129 5.0 11.0 0.00 0.00 0.00 51 1008.1
20260905210456 97 154 5.0 11.0 0.00 0.00 0.00 52 1008.1
20260905205957 97 193 5.0 12.0 0.00 0.00 0.00 51 1008.1
20260905205457 97 68 5.0 12.0 0.00 0.00 0.00 52 1008.2
20260905204958 97 98 4.0 12.0 0.00 0.00 0.00 52 1008.3
20260905204456 97 28 4.0 11.0 0.00 0.00 0.00 54 1008.4
20260905203957 98 110 5.0 11.0 0.00 0.00 0.00 52 1008.5
20260905203456 97 142 4.0 10.0 0.00 0.00 0.00 52 1008.6
20260905202957 97 190 4.0 9.0 0.00 0.00 0.00 54 1008.7
20260905202455 97 128 5.0 10.0 0.00 0.00 0.00 53 1008.9
20260905201957 97 133 5.0 11.0 0.00 0.00 0.00 54 1008.9
20260905201455 97 106 5.0 11.0 0.00 0.00 0.00 54 1008.9
20260905200956 97 101 5.0 9.0 0.00 0.00 0.00 54 1009.0
20260905200455 97 145 5.0 9.0 0.00 0.00 0.00 54 1009.1
20260905195957 98 126 4.0 9.0 0.00 0.00 0.00 54 1009.2
20260905195456 99 182 4.0 9.0 0.00 0.00 0.00 49 1009.2
20260905194957 98 118 4.0 9.0 0.00 0.00 0.00 51 1009.2
20260905194455 98 145 3.0 8.0 0.00 0.00 0.00 51 1009.3
20260905193957 98 128 4.0 12.0 0.00 0.00 0.00 51 1009.3
20260905193456 99 115 4.0 12.0 0.00 0.00 0.00 51 1009.4
20260905192957 100 104 3.0 9.0 0.00 0.00 0.00 48 1009.4
20260905192456 100 131 4.0 10.0 0.00 0.00 0.00 47 1009.6
20260905191957 99 186 4.0 10.0 0.00 0.00 0.00 48 1009.6
20260905191455 100 131 4.0 11.0 0.00 0.00 0.00 50 1009.6
20260905190957 99 163 4.0 11.0 0.00 0.00 0.00 47 1009.7
20260905190456 98 116 5.0 10.0 0.00 0.00 0.00 47 1009.7
20260905185955 98 147 4.0 8.0 0.00 0.00 0.00 47 1009.6
20260905184956 97 102 3.0 7.0 0.00 0.00 0.00 49 1009.8
20260905184455 97 166 3.0 7.0 0.00 0.00 0.00 50 1009.9
20260905183957 98 47 3.0 9.0 0.00 0.00 0.00 50 1010.0
20260905183457 97 102 3.0 9.0 0.00 0.00 0.00 50 1010.1
20260905182957 98 126 2.0 8.0 0.00 0.00 0.00 50 1010.1
20260905182458 97 179 4.0 9.0 0.00 0.00 0.00 51 1010.2
20260905181957 97 132 3.0 9.0 0.00 0.00 0.00 52 1010.4
20260905181457 97 87 3.0 7.0 0.00 0.00 0.00 51 1010.5
20260905180457 96 95 3.0 8.0 0.00 0.00 0.00 51 1010.6
20260905175958 96 69 4.0 9.0 0.00 0.00 0.00 52 1010.6
20260905175458 95 150 3.0 9.0 0.00 0.00 0.00 53 1010.8
20260905174957 95 175 3.0 7.0 0.00 0.00 0.00 54 1010.8
20260905174455 95 123 4.0 7.0 0.00 0.00 0.00 55 1011.0
20260905173955 96 97 4.0 11.0 0.00 0.00 0.00 54 1011.1
20260905173455 96 90 4.0 11.0 0.00 0.00 0.00 53 1011.1